Weather History for Glasgow, United Kingdom

Change the Weather History Date:

Friday, September 2, 2011

  Actual Average Record
Temperature  
Mean Temperature 58 °F -  
Max Temperature 62 °F 60 °F 69 °F (1996)
Min Temperature 55 °F 46 °F 44 °F (2005)
Degree Days  
Heating Degree Days 6    
Growing Degree Days 8 (Base 50)    
Moisture  
Dew Point 54 °F    
Average Humidity 84    
Maximum Humidity 94    
Minimum Humidity 72    
Precipitation  
Precipitation 0.00 in - - ()
Sea Level Pressure  
Sea Level Pressure 29.68 in    
Wind  
Wind Speed 8 mph ()    
Max Wind Speed 17 mph    
Max Gust Speed -    
Visibility 5.8 miles    
Events Rain    
Averages and records for this station are not official NWS values.
T = Trace of Precipitation, MM = Missing Value Source: Averaged Metar Reports

Daily Weather History Graph

Daily Weather History Graph

Search for Another Location

Airport:

Trip Planner

Search our weather history database for the weather conditions in past years. The results will help you decide how hot, cold, wet, or windy it might be!

Date:

Astronomy

Sep. 02, 2011 Rise Set
Actual Time 6:23 AM BST 8:10 PM BST
Civil Twilight 5:44 AM BST 8:49 PM BST
Nautical Twilight 4:54 AM BST 9:38 PM BST
Astronomical Twilight 3:57 AM BST 10:34 PM BST
Moon 12:55 PM BST 9:14 PM BST
Length of Visible Light 15h 05m
Length of Day
13h 47m
Waxing Crescent, 25% of the Moon is Illuminated
Sep 2
Waxing Crescent
Sep 4
First Quarter
Sep 12
Full
Sep 20
Last Quarter
Sep 27
New

Hourly Weather History & Observations

Time (BST) Temp. Dew Point Humidity Pressure Visibility Wind Dir Wind Speed Gust Speed Precip Events Conditions
12:20 AM 57.2 °F 50.0 °F 77% 29.74 in 6.2 mi East 6.9 mph - N/A   Mostly Cloudy
12:50 AM 57.2 °F 50.0 °F 77% 29.74 in 6.2 mi East 5.8 mph - N/A   Mostly Cloudy
1:20 AM 57.2 °F 51.8 °F 82% 29.71 in 6.2 mi SE 5.8 mph - N/A   Mostly Cloudy
2:20 AM 57.2 °F 53.6 °F 88% 29.68 in 3.7 mi SE 5.8 mph - N/A Rain Light Rain
2:50 AM 57.2 °F 53.6 °F 88% 29.68 in 4.3 mi ESE 6.9 mph - N/A Rain Light Rain
3:20 AM 57.2 °F 55.4 °F 94% 29.68 in 4.3 mi ESE 3.5 mph - N/A Rain Light Rain
3:50 AM 59.0 °F 53.6 °F 82% 29.65 in 6.2 mi South 5.8 mph - N/A Rain Light Rain
4:20 AM 59.0 °F 53.6 °F 82% 29.65 in 2.2 mi WSW 5.8 mph - N/A Rain Light Rain
4:50 AM 57.2 °F 55.4 °F 94% 29.65 in 5.0 mi SSW 10.4 mph - N/A Rain Light Rain
5:20 AM 57.2 °F 55.4 °F 94% 29.65 in 5.0 mi SSW 12.7 mph - N/A Rain Light Rain
5:50 AM 59.0 °F 55.4 °F 88% 29.65 in 5.0 mi SSW 12.7 mph - N/A Rain Light Rain
6:20 AM 59.0 °F 57.2 °F 94% 29.65 in 3.7 mi WSW 8.1 mph - N/A Rain Light Rain
6:50 AM 59.0 °F 57.2 °F 94% 29.65 in 5.0 mi WSW 11.5 mph - N/A Rain Light Rain
7:20 AM 59.0 °F 57.2 °F 94% 29.65 in 5.6 mi SW 16.1 mph - N/A   Mostly Cloudy
7:50 AM 59.0 °F 57.2 °F 94% 29.65 in 6.2 mi SW 17.3 mph - N/A   Overcast
8:20 AM 59.0 °F 53.6 °F 82% 29.65 in 6.2 mi WSW 15.0 mph - N/A   Mostly Cloudy
8:50 AM 57.2 °F 51.8 °F 82% 29.65 in 6.2 mi West 6.9 mph - N/A   Overcast
9:20 AM 57.2 °F 51.8 °F 82% 29.65 in 6.2 mi West 8.1 mph - N/A   Mostly Cloudy
9:50 AM 57.2 °F 53.6 °F 88% 29.65 in 6.2 mi Variable 3.5 mph - N/A   Mostly Cloudy
10:20 AM 59.0 °F 53.6 °F 82% 29.65 in 6.2 mi West 6.9 mph - N/A   Mostly Cloudy
10:50 AM 60.8 °F 53.6 °F 77% 29.65 in 6.2 mi SW 10.4 mph - N/A   Mostly Cloudy
11:20 AM 60.8 °F 53.6 °F 77% 29.68 in 6.2 mi SW 11.5 mph - N/A   Mostly Cloudy
11:50 AM 62.6 °F 53.6 °F 72% 29.68 in 6.2 mi SW 15.0 mph - N/A   Mostly Cloudy
12:20 PM 62.6 °F 53.6 °F 72% 29.68 in 6.2 mi SW 15.0 mph - N/A   Mostly Cloudy
12:50 PM 62.6 °F 53.6 °F 72% 29.68 in 6.2 mi SW 16.1 mph - N/A   Mostly Cloudy
1:20 PM 60.8 °F 51.8 °F 72% 29.68 in 6.2 mi West 10.4 mph - N/A   Mostly Cloudy
1:50 PM 62.6 °F 53.6 °F 72% 29.68 in 6.2 mi SW 17.3 mph - N/A   Mostly Cloudy
2:20 PM 60.8 °F 51.8 °F 72% 29.68 in 6.2 mi WSW 12.7 mph - N/A Rain Light Rain
2:50 PM 59.0 °F 51.8 °F 77% 29.71 in 6.2 mi WSW 11.5 mph - N/A Rain Light Rain
3:20 PM 60.8 °F 53.6 °F 77% 29.71 in 6.2 mi WSW 12.7 mph - N/A   Mostly Cloudy
3:50 PM 59.0 °F 51.8 °F 77% 29.71 in 6.2 mi SW 15.0 mph - N/A   Mostly Cloudy
4:20 PM 59.0 °F 51.8 °F 77% 29.71 in 6.2 mi SW 13.8 mph - N/A   Mostly Cloudy
4:50 PM 60.8 °F 51.8 °F 72% 29.71 in 6.2 mi SW 13.8 mph - N/A   Mostly Cloudy
5:20 PM 59.0 °F 51.8 °F 77% 29.71 in 6.2 mi WSW 12.7 mph - N/A   Mostly Cloudy
5:50 PM 59.0 °F 53.6 °F 82% 29.71 in 6.2 mi WSW 6.9 mph - N/A Rain Light Rain
6:20 PM 57.2 °F 53.6 °F 88% 29.68 in 6.2 mi WSW 5.8 mph - N/A Rain Light Rain
6:50 PM 57.2 °F 55.4 °F 94% 29.68 in 6.2 mi West 3.5 mph - N/A Rain Light Rain
7:20 PM 57.2 °F 53.6 °F 88% 29.68 in 6.2 mi SW 3.5 mph - N/A Rain Light Rain
7:50 PM 57.2 °F 53.6 °F 88% 29.68 in 6.2 mi Variable 3.5 mph - N/A Rain Light Rain
8:20 PM 55.4 °F 53.6 °F 94% 29.68 in 6.2 mi WSW 4.6 mph - N/A Rain Light Rain
8:50 PM 55.4 °F 53.6 °F 94% 29.68 in 6.2 mi SW 8.1 mph - N/A Rain Light Rain
9:20 PM 55.4 °F 53.6 °F 94% 29.68 in 6.2 mi Variable 3.5 mph - N/A Rain Light Rain
9:50 PM 55.4 °F 53.6 °F 94% 29.68 in 6.2 mi SSE 4.6 mph - N/A Rain Light Rain
10:20 PM 55.4 °F 53.6 °F 94% 29.68 in 6.2 mi SSE 3.5 mph - N/A Rain Light Rain
10:50 PM 57.2 °F 53.6 °F 88% 29.68 in 6.2 mi South 5.8 mph - N/A   Scattered Clouds
11:20 PM 57.2 °F 53.6 °F 88% 29.65 in 6.2 mi South 8.1 mph - N/A   Partly Cloudy
11:50 PM 57.2 °F 53.6 °F 88% 29.65 in 6.2 mi South 10.4 mph - N/A   Scattered Clouds